Weather History for Plant City, FL

Change the Weather History Date:

Friday, July 5, 2013

  Actual Average Record
Temperature  
Mean Temperature 82 °F -  
Max Temperature 91 °F 92 °F 98 °F (1969)
Min Temperature 73 °F 71 °F 65 °F (1935)
Cooling Degree Days 17    
Growing Degree Days 32 (Base 50)    
Moisture  
Dew Point 75 °F    
Average Humidity 77    
Maximum Humidity 100    
Minimum Humidity 52    
Precipitation  
Precipitation 0.10 in - - ()
Sea Level Pressure  
Sea Level Pressure 30.14 in    
Wind  
Wind Speed 5 mph (ESE)    
Max Wind Speed 15 mph    
Max Gust Speed 37 mph    
Visibility 9 miles    
Events Rain    
Averages and records for this station are not official NWS values.
T = Trace of Precipitation, MM = Missing Value Source: NWS Daily Summary

Daily Weather History Graph

Daily Weather History Graph

Search for Another Location

Airport:

Trip Planner

Search our weather history database for the weather conditions in past years. The results will help you decide how hot, cold, wet, or windy it might be!

Date:

Astronomy

Jul. 05, 2013 Rise Set
Actual Time 6:37 AM EDT 8:28 PM EDT
Civil Twilight 6:10 AM EDT 8:55 PM EDT
Nautical Twilight 5:38 AM EDT 9:27 PM EDT
Astronomical Twilight 5:05 AM EDT 10:01 PM EDT
Moon 4:31 AM EDT (7/5) 6:26 PM EDT (7/5)
Length of Visible Light 14h 44m
Length of Day
13h 51m
Waning Crescent, 6% of the Moon is Illuminated
Jul 5
Waning Crescent
Jul 8
New
Jul 15
First Quarter
Jul 22
Full
Jul 29
Last Quarter

Hourly Weather History & Observations

Time (EDT) Temp. Heat Index Dew Point Humidity Pressure Visibility Wind Dir Wind Speed Gust Speed Precip Events Conditions
12:15 AM 73.4 °F - - N/A% 30.19 in 10.0 mi ENE 3.5 mph - N/A   Clear
12:35 AM 73.4 °F - - N/A% 30.18 in 10.0 mi Calm Calm - N/A   Scattered Clouds
12:55 AM 73.4 °F - - N/A% 30.18 in 10.0 mi ENE 3.5 mph - N/A   Scattered Clouds
1:15 AM 73.4 °F - - N/A% 30.16 in 10.0 mi ENE 4.6 mph - N/A   Clear
1:35 AM 73.4 °F - - N/A% 30.15 in 10.0 mi NE 5.8 mph - N/A   Clear
1:55 AM 73.4 °F - - N/A% 30.15 in 10.0 mi Calm Calm - N/A   Clear
2:15 AM 73.4 °F - - N/A% 30.15 in 10.0 mi ENE 4.6 mph - N/A   Clear
2:35 AM 73.4 °F - - N/A% 30.14 in 7.0 mi Calm Calm - N/A   Clear
2:55 AM 73.4 °F - - N/A% 30.13 in 7.0 mi East 4.6 mph - N/A   Clear
3:15 AM 73.4 °F - - N/A% 30.14 in 5.0 mi East 3.5 mph - N/A   Haze
3:35 AM 73.4 °F - - N/A% 30.12 in 5.0 mi East 3.5 mph - N/A   Haze
3:55 AM 73.4 °F - - N/A% 30.12 in 5.0 mi East 4.6 mph - N/A   Haze
4:15 AM 75.2 °F - - N/A% 30.11 in 5.0 mi East 4.6 mph - N/A   Haze
4:35 AM 75.2 °F - - N/A% 30.11 in 5.0 mi East 4.6 mph - N/A   Haze
4:55 AM 75.2 °F - - N/A% 30.11 in 5.0 mi Calm Calm - N/A   Haze
5:15 AM 75.2 °F - - N/A% 30.11 in 5.0 mi East 4.6 mph - N/A   Haze
5:35 AM 75.2 °F - - N/A% 30.11 in 5.0 mi East 3.5 mph - N/A   Haze
5:55 AM 77.0 °F - - N/A% 30.12 in 5.0 mi East 4.6 mph - N/A   Haze
6:15 AM 77.0 °F - - N/A% 30.13 in 7.0 mi East 3.5 mph - N/A   Clear
6:35 AM 77.0 °F - - N/A% 30.13 in 5.0 mi East 3.5 mph - N/A   Haze
6:55 AM 77.0 °F - - N/A% 30.14 in 5.0 mi East 3.5 mph - N/A   Haze
7:15 AM 77.0 °F - - N/A% 30.14 in 5.0 mi East 4.6 mph - N/A   Haze
7:35 AM 77.0 °F - - N/A% 30.14 in 5.0 mi East 4.6 mph - N/A   Haze
7:55 AM 78.8 °F - - N/A% 30.14 in 5.0 mi East 6.9 mph - N/A   Haze
8:15 AM 80.6 °F - - N/A% 30.14 in 7.0 mi East 9.2 mph - N/A   Clear
8:35 AM 80.6 °F - - N/A% 30.14 in 10.0 mi East 8.1 mph - N/A   Clear
8:55 AM 80.6 °F - - N/A% 30.14 in 10.0 mi East 8.1 mph - N/A   Scattered Clouds
9:15 AM 82.4 °F - - N/A% 30.14 in 10.0 mi ESE 6.9 mph - N/A   Clear
9:35 AM 84.2 °F 92.3 °F 75.2 °F 74% 30.14 in 10.0 mi East 11.5 mph 18.4 mph N/A   Clear
9:55 AM 84.2 °F 92.3 °F 75.2 °F 74% 30.16 in 10.0 mi SE 13.8 mph 19.6 mph N/A   Scattered Clouds
10:15 AM 84.2 °F 92.3 °F 75.2 °F 74% 30.16 in 10.0 mi ESE 13.8 mph 18.4 mph N/A   Scattered Clouds
10:35 AM 86.0 °F 95.1 °F 75.2 °F 70% 30.16 in 10.0 mi ESE 13.8 mph 17.3 mph N/A   Mostly Cloudy
10:55 AM 86.0 °F 95.1 °F 75.2 °F 70% 30.16 in 10.0 mi SE 8.1 mph 18.4 mph N/A   Mostly Cloudy
11:15 AM 84.2 °F 94.1 °F 77.0 °F 79% 30.15 in 10.0 mi ESE 6.9 mph - N/A   Mostly Cloudy
11:35 AM 86.0 °F 96.9 °F 77.0 °F 74% 30.15 in 10.0 mi ESE 12.7 mph 18.4 mph N/A   Mostly Cloudy
11:55 AM 87.8 °F 97.6 °F 75.2 °F 66% 30.15 in 10.0 mi ESE 9.2 mph - N/A   Mostly Cloudy
12:15 PM 89.6 °F 98.2 °F 73.4 °F 59% 30.15 in 10.0 mi ESE 12.7 mph 17.3 mph N/A   Scattered Clouds
12:35 PM 86.0 °F 93.4 °F 73.4 °F 66% 30.14 in 10.0 mi East 8.1 mph - N/A   Scattered Clouds
12:55 PM 89.6 °F 99.8 °F 75.2 °F 62% 30.14 in 10.0 mi East 11.5 mph - N/A   Clear
1:15 PM 89.6 °F 98.2 °F 73.4 °F 59% 30.13 in 10.0 mi ESE 10.4 mph - N/A   Scattered Clouds
1:35 PM 91.4 °F 98.4 °F 71.6 °F 52% 30.12 in 10.0 mi SE 12.7 mph 17.3 mph N/A   Scattered Clouds
1:55 PM 91.4 °F 100.1 °F 73.4 °F 55% 30.12 in 10.0 mi ESE 12.7 mph - N/A   Scattered Clouds
2:15 PM 82.4 °F 87.2 °F 71.6 °F 70% 30.15 in 5.0 mi ESE 15.0 mph 25.3 mph N/A   Haze
2:35 PM 77.0 °F - 71.6 °F 83% 30.17 in 4.0 mi SSE 15.0 mph 36.8 mph 0.02 in Rain Heavy Rain
2:55 PM 75.2 °F - 75.2 °F 100% 30.15 in 10.0 mi ESE 10.4 mph - 0.03 in   Overcast
3:15 PM 77.0 °F - 75.2 °F 94% 30.14 in 10.0 mi SE 4.6 mph - N/A Rain Rain
3:35 PM 78.8 °F - - N/A% 30.13 in 10.0 mi SE 3.5 mph - 0.01 in   Mostly Cloudy
3:55 PM 80.6 °F 87.1 °F 77.0 °F 89% 30.12 in 10.0 mi SSE 5.8 mph - 0.01 in   Scattered Clouds
4:15 PM 80.6 °F 86.2 °F 75.2 °F 84% 30.12 in 10.0 mi SE 8.1 mph - N/A   Scattered Clouds
4:35 PM 80.6 °F 86.2 °F 75.2 °F 84% 30.12 in 10.0 mi SE 8.1 mph - N/A Rain Light Rain
4:55 PM 80.6 °F 86.2 °F 75.2 °F 84% 30.12 in 10.0 mi ESE 5.8 mph - N/A   Mostly Cloudy
5:15 PM 80.6 °F 86.2 °F 75.2 °F 84% 30.11 in 10.0 mi SE 6.9 mph - N/A   Overcast
5:35 PM 80.6 °F 86.2 °F 75.2 °F 84% 30.11 in 10.0 mi SSE 8.1 mph - N/A   Mostly Cloudy
5:55 PM 82.4 °F 89.5 °F 75.2 °F 79% 30.10 in 10.0 mi SE 5.8 mph - N/A   Clear
6:15 PM 82.4 °F 89.5 °F 75.2 °F 79% 30.10 in 10.0 mi SE 8.1 mph - N/A   Clear
6:35 PM 82.4 °F 89.5 °F 75.2 °F 79% 30.11 in 10.0 mi ESE 5.8 mph - N/A   Clear
6:55 PM 82.4 °F 89.5 °F 75.2 °F 79% 30.11 in 10.0 mi SE 4.6 mph - N/A   Scattered Clouds
7:15 PM 82.4 °F 89.5 °F 75.2 °F 79% 30.11 in 10.0 mi SE 3.5 mph - N/A   Mostly Cloudy
7:35 PM 82.4 °F 89.5 °F 75.2 °F 79% 30.12 in 10.0 mi SE 5.8 mph - N/A   Scattered Clouds
7:55 PM 82.4 °F 89.5 °F 75.2 °F 79% 30.12 in 10.0 mi ESE 10.4 mph - N/A   Mostly Cloudy
8:15 PM 78.8 °F - 75.2 °F 89% 30.13 in 4.0 mi SE 9.2 mph 16.1 mph 0.05 in Rain Heavy Rain
8:35 PM 77.0 °F - 77.0 °F 100% 30.13 in 10.0 mi ESE 5.8 mph - 0.06 in Rain Light Rain
8:55 PM 77.0 °F - - N/A% 30.12 in 10.0 mi East 3.5 mph - 0.06 in   Clear
9:15 PM 77.0 °F - - N/A% 30.13 in 10.0 mi East 4.6 mph - N/A   Scattered Clouds
9:35 PM 77.0 °F - - N/A% 30.13 in 10.0 mi East 5.8 mph - N/A   Scattered Clouds
9:55 PM 77.0 °F - - N/A% 30.13 in 10.0 mi East 4.6 mph - N/A   Clear
10:15 PM 77.0 °F - - N/A% 30.14 in 10.0 mi ESE 4.6 mph - N/A   Scattered Clouds
10:35 PM 77.0 °F - - N/A% 30.14 in 10.0 mi East 4.6 mph - N/A   Mostly Cloudy
10:55 PM 77.0 °F - - N/A% 30.15 in 10.0 mi Calm Calm - N/A   Mostly Cloudy
11:15 PM 77.0 °F - - N/A% 30.15 in 10.0 mi East 3.5 mph - N/A   Mostly Cloudy
11:35 PM 77.0 °F - - N/A% 30.15 in 10.0 mi East 3.5 mph - N/A   Scattered Clouds
11:55 PM 77.0 °F - - N/A% 30.14 in 10.0 mi East 4.6 mph - N/A   Clear